Sharm El Sheikh, Egypt

11:46 PM EET on December 16, 2017 (GMT +0200)
Sharm El Sheikh

Weather History for HESH - July, 2013

Change the Weather History Date:

Thursday, July 25, 2013

  Actual Average Record
Temperature  
Mean Temperature 96 °F -  
Max Temperature 105 °F 99 °F - ()
Min Temperature 86 °F 82 °F - ()
Cooling Degree Days 30    
Growing Degree Days 46 (Base 50)    
Moisture  
Dew Point 53 °F    
Average Humidity 27    
Maximum Humidity 45    
Minimum Humidity 14    
Precipitation  
Precipitation 0.00 in 0.00 in - ()
Sea Level Pressure  
Sea Level Pressure 29.64 in    
Wind  
Wind Speed 9 mph ()    
Max Wind Speed 16 mph    
Max Gust Speed -    
T = Trace of Precipitation, MM = Missing Value Source: Averaged Metar Reports

Daily Weather History Graph

Daily Weather History Graph

Search for Another Location

Airport or City:

Trip Planner

Search our weather history database for the weather conditions in past years. The results will help you decide how hot, cold, wet, or windy it might be!

Date:

Astronomy

Jul. 25, 2013 Rise Set
Actual Time 5:01 AM EET 6:36 PM EET
Civil Twilight 4:35 AM EET 7:02 PM EET
Nautical Twilight 4:04 AM EET 7:32 PM EET
Astronomical Twilight 3:32 AM EET 8:05 PM EET
Moon 8:29 PM EET (7/25) 7:46 AM EET (7/25)
Length of Visible Light 14h 26m
Length of Day
13h 35m
Waning Gibbous, 90% of the Moon is Illuminated
Jul 25
Waning Gibbous
Jul 29
Last Quarter
Aug 6
New
Aug 14
First Quarter
Aug 21
Full

Hourly Weather History & Observations

Time (EET) Temp. Heat Index Dew Point Humidity Pressure Visibility Wind Dir Wind Speed Gust Speed Precip Events Conditions
12:00 AM 87.8 °F - 50.0 °F 27% 29.65 in - North 5.8 mph - N/A   Clear
1:00 AM 86.0 °F 86.6 °F 62.6 °F 45% 29.62 in - North 15.0 mph - N/A   Clear
2:00 AM 87.8 °F 87.1 °F 59.0 °F 38% 29.65 in - North 15.0 mph - N/A   Clear
3:00 AM 86.0 °F 86.1 °F 60.8 °F 43% 29.65 in - North 12.7 mph - N/A   Clear
4:00 AM 86.0 °F 85.4 °F 59.0 °F 40% 29.65 in - North 9.2 mph - N/A   Clear
5:00 AM 86.0 °F 84.2 °F 53.6 °F 33% 29.65 in - North 6.9 mph - N/A   Clear
6:00 AM 87.8 °F - 51.8 °F 29% 29.68 in - North 11.5 mph - N/A   Clear
7:00 AM 91.4 °F 89.1 °F 53.6 °F 28% 29.68 in - North 13.8 mph - N/A   Clear
8:00 AM 91.4 °F 89.9 °F 57.2 °F 31% 29.68 in - NNE 16.1 mph - N/A   Clear
9:00 AM 93.2 °F 91.3 °F 55.4 °F 28% 29.68 in - North 13.8 mph - N/A   Clear
10:00 AM 95.0 °F 93.7 °F 57.2 °F 28% 29.68 in - NNE 12.7 mph - N/A   Clear
11:00 AM 96.8 °F 96.2 °F 59.0 °F 28% 29.68 in - NNE 11.5 mph - N/A   Clear
12:00 PM 96.8 °F 95.1 °F 55.4 °F 25% 29.65 in - NNE 10.4 mph - N/A   Clear
1:00 PM 100.4 °F - 51.8 °F 20% 29.65 in - NNE 9.2 mph - N/A   Clear
2:00 PM 104.0 °F - 50.0 °F 16% 29.65 in - NNE 8.1 mph - N/A   Clear
3:00 PM 105.8 °F - 46.4 °F 14% 29.62 in - NE 8.1 mph - N/A   Clear
4:00 PM 104.0 °F - 48.2 °F 15% 29.59 in - NE 6.9 mph - N/A   Clear
5:00 PM 102.2 °F - 46.4 °F 15% 29.59 in - NNE 5.8 mph - N/A   Clear
6:00 PM 100.4 °F - 46.4 °F 16% 29.59 in - NNE 6.9 mph - N/A   Clear
7:00 PM 95.0 °F - 44.6 °F 18% 29.59 in - North 5.8 mph - N/A   Clear
8:00 PM 95.0 °F - 46.4 °F 19% 29.59 in - North 4.6 mph - N/A   Clear
9:00 PM 93.2 °F - 48.2 °F 21% 29.59 in - North 10.4 mph - N/A   Clear
10:00 PM 86.0 °F 85.4 °F 59.0 °F 40% 29.59 in - North 12.7 mph - N/A   Clear
11:00 PM 89.6 °F 87.3 °F 53.6 °F 29% 29.59 in - North 10.4 mph - N/A   Clear